Time[GMT],current_u[cm/s](10m),current_v[cm/s](10m),current_u[cm/s](14m),current_v[cm/s](14m),current_u[cm/s](18m),current_v[cm/s](18m),current_u[cm/s](22m),current_v[cm/s](22m),current_u[cm/s](26m),current_v[cm/s](26m),current_u[cm/s](30m),current_v[cm/s](30m),current_u[cm/s](34m),current_v[cm/s](34m),current_u[cm/s](38m),current_v[cm/s](38m),current_u[cm/s](42m),current_v[cm/s](42m),current_u[cm/s](46m),current_v[cm/s](46m),current_u[cm/s](50m),current_v[cm/s](50m),current_u[cm/s](54m),current_v[cm/s](54m)
2004-03-22 13:00,-3.04,-41.33,-3.46,-37.30,-2.48,-33.48,-2.45,-27.75,-4.68,-20.69,-7.23,-15.80,-5.43,-11.54,-6.08,-6.73,-8.78,-2.41,-11.65,-1.46,-12.36,-1.88,,
2004-03-22 14:00,-10.48,-39.31,-10.15,-37.55,-8.48,-33.95,-7.38,-30.51,-7.21,-26.41,-9.48,-20.29,-10.46,-12.88,-12.84,-7.11,-14.94,-5.94,-15.56,-6.33,-16.23,-5.79,,
2004-03-22 15:00,-17.92,-42.37,-16.91,-40.11,-13.88,-38.72,-11.67,-36.63,-11.52,-32.42,-11.88,-28.99,-14.56,-22.89,-17.01,-16.52,-19.87,-11.62,-23.15,-9.23,-24.02,-9.48,,
2004-03-22 16:00,-12.80,-39.55,-11.24,-37.75,-9.01,-35.35,-5.72,-32.32,-3.75,-26.87,-4.68,-22.15,-8.19,-19.72,-12.61,-15.89,-16.19,-11.40,-18.48,-8.83,-21.30,-8.81,,
2004-03-22 17:00,-10.03,-31.06,-8.91,-29.18,-6.25,-27.59,-2.22,-25.29,-0.33,-21.00,-0.68,-16.52,-3.91,-13.60,-7.84,-10.77,-11.38,-9.29,-13.92,-7.32,-15.97,-6.34,,
2004-03-22 18:00,-27.50,-22.75,-23.20,-20.69,-18.99,-16.88,-13.16,-12.51,-9.72,-8.19,-11.47,-6.09,-14.39,-4.95,-15.94,-4.98,-17.35,-5.18,-18.43,-3.93,-19.79,-3.17,,
2004-03-22 19:00,-24.01,-21.13,-22.03,-19.31,-19.38,-16.58,-15.75,-10.75,-13.43,-7.59,-12.34,-6.66,-13.29,-6.62,-13.33,-6.84,-14.09,-6.74,-14.82,-6.74,-14.36,-5.78,,
2004-03-22 20:00,-33.80,-5.83,-28.51,-2.13,-23.27,0.62,-18.91,6.44,-16.52,9.00,-14.37,9.51,-12.93,9.92,-12.51,9.52,-11.98,9.88,-11.72,10.06,-11.50,10.02,,
2004-03-22 21:00,-26.72,-12.02,-25.05,-9.88,-20.71,-7.60,-16.87,-2.13,-10.41,1.49,-6.82,4.91,-6.87,5.11,-6.58,3.00,-6.17,2.29,-6.31,2.04,-7.79,2.14,,
2004-03-22 22:00,-12.98,-14.23,-8.29,-10.28,-3.71,-4.49,1.28,0.26,5.34,3.51,8.39,3.76,9.08,4.26,8.28,3.41,7.84,2.77,7.14,1.21,7.23,-0.53,,
2004-03-22 23:00,-24.91,-11.09,-22.25,-8.76,-19.30,-4.90,-16.29,0.95,-11.60,6.35,-8.78,7.05,-7.67,6.44,-8.20,5.04,-9.59,4.43,-11.54,4.70,-11.87,6.59,,
2004-03-23 00:00,-12.58,-23.99,-11.77,-19.18,-10.72,-15.24,-8.39,-8.85,-5.99,-0.16,-4.43,3.10,-4.25,1.38,-3.10,-0.06,-3.30,-1.57,-5.05,-1.24,-5.59,0.27,,
2004-03-23 01:00,-16.77,-22.80,-15.48,-20.04,-14.16,-16.64,-12.45,-12.10,-12.62,-5.70,-12.72,0.10,-10.18,3.95,-10.10,3.66,-9.25,2.14,-9.44,2.08,-10.47,2.41,,
2004-03-23 02:00,-4.42,-40.48,-3.47,-35.84,-3.18,-33.57,-4.66,-29.11,-6.94,-22.27,-10.29,-15.64,-12.04,-9.17,-12.61,-6.84,-13.76,-7.89,-11.88,-9.02,-10.84,-10.08,,
2004-03-23 03:00,-5.66,-46.35,-4.44,-41.53,-3.46,-37.30,-3.41,-33.12,-3.13,-27.94,-4.90,-22.83,-6.07,-19.11,-5.99,-15.03,-6.39,-13.27,-6.05,-14.11,-5.95,-14.08,,
2004-03-23 04:00,0.07,-30.04,2.77,-27.09,4.10,-24.83,3.23,-22.17,2.54,-20.49,1.18,-17.55,-1.46,-14.15,-4.94,-10.36,-8.33,-6.86,-8.70,-7.38,-8.29,-3.73,,
2004-03-23 05:00,-15.41,-19.91,-13.71,-16.41,-10.66,-13.25,-8.41,-11.67,-8.66,-11.53,-10.14,-10.71,-12.28,-7.26,-14.25,-4.71,-17.65,-1.21,-18.01,-1.41,-18.09,-0.40,,
2004-03-23 06:00,-11.70,-9.28,-9.40,-7.48,-9.10,-7.81,-8.43,-9.07,-9.09,-9.68,-10.20,-9.06,-11.75,-6.90,-13.06,-4.16,-15.07,-1.51,-17.02,0.22,-19.67,1.86,,
2004-03-23 07:00,-11.29,0.93,-8.92,5.35,-8.81,7.88,-10.11,7.71,-10.32,6.61,-9.87,4.66,-9.55,4.65,-10.37,3.89,-11.42,3.91,-12.52,4.11,-14.94,6.02,,
2004-03-23 08:00,-10.39,2.12,-9.72,6.68,-10.28,7.56,-12.83,6.31,-13.48,4.57,-13.72,3.25,-13.59,3.49,-13.17,2.05,-13.85,2.59,-15.63,3.01,-18.15,4.89,,
2004-03-23 09:00,-4.54,14.41,-4.74,15.08,-5.78,14.36,-7.21,13.54,-6.33,13.37,-6.15,12.39,-5.94,12.76,-6.68,13.90,-8.78,11.42,-10.84,6.98,-14.21,8.20,,
2004-03-23 10:00,-11.34,16.00,-11.67,16.42,-10.38,17.00,-10.03,17.93,-11.52,19.17,-14.41,19.80,-16.91,16.90,-19.76,13.06,-21.88,13.19,-23.50,17.40,-22.60,21.51,,
2004-03-23 11:00,-8.28,18.02,-8.50,19.51,-9.16,21.09,-9.37,22.91,-9.00,24.16,-9.22,24.20,-9.64,20.95,-13.28,16.58,-16.99,13.55,-17.39,14.58,-14.20,15.80,,
2004-03-23 12:00,-2.86,-0.92,-2.68,1.00,-2.24,3.10,-2.69,3.60,-2.45,2.00,-4.22,-1.62,-6.82,-5.60,-9.94,-9.61,-9.84,-10.31,-8.94,-8.38,-7.63,-6.76,,
2004-03-23 13:00,-2.22,-5.32,-1.51,-4.18,-2.46,-3.41,-1.55,-3.67,-2.13,-5.29,-3.50,-9.22,-4.99,-12.35,-6.80,-15.47,-5.00,-14.12,-3.58,-11.84,-1.00,-9.23,,
2004-03-23 14:00,-9.68,8.36,-9.76,10.10,-8.51,10.46,-8.40,8.62,-8.80,6.01,-9.60,1.93,-8.89,-1.30,-6.44,-0.39,-3.76,0.07,-1.88,1.85,-4.52,3.07,,
2004-03-23 15:00,-11.10,-3.39,-10.26,-2.31,-9.08,-0.62,-9.20,-1.28,-9.37,-3.62,-8.79,-6.37,-8.28,-8.51,-7.34,-8.86,-5.46,-6.35,-3.80,-4.52,-5.40,-3.31,,
2004-03-23 16:00,-11.74,-8.04,-9.80,-8.63,-8.87,-8.26,-7.67,-6.98,-8.20,-6.61,-9.73,-7.78,-9.51,-9.28,-8.51,-10.24,-6.85,-10.60,-5.79,-6.65,-5.20,-3.99,,
2004-03-23 17:00,-3.32,-8.02,-6.99,-5.02,-8.90,-2.34,-9.70,-0.28,-11.40,2.04,-13.42,2.19,-14.35,1.09,-14.38,1.19,-13.97,2.66,-14.22,2.79,-13.07,3.85,,
2004-03-23 18:00,-12.56,-13.17,-13.76,-9.35,-12.29,-11.22,-12.33,-11.44,-12.79,-11.99,-13.76,-12.26,-14.04,-11.62,-13.87,-11.88,-14.87,-10.92,-13.91,-8.46,-13.11,-8.33,,
2004-03-23 19:00,-8.58,6.70,-9.62,8.17,-9.88,8.72,-9.70,9.91,-10.28,10.47,-10.58,10.80,-12.25,10.43,-13.00,10.53,-12.03,11.12,-10.02,12.11,-7.41,13.17,,
2004-03-23 20:00,-10.79,16.26,-11.82,17.31,-10.63,18.59,-12.32,19.04,-14.16,19.66,-15.30,21.10,-18.04,22.30,-20.28,23.94,-21.11,24.33,-18.37,21.99,-13.97,14.62,,
2004-03-23 21:00,-20.02,16.52,-20.83,16.81,-19.78,15.66,-19.46,15.65,-19.71,16.51,-19.78,17.84,-19.00,19.84,-19.44,22.10,-18.20,22.87,-17.89,22.13,-17.42,17.58,,
2004-03-23 22:00,-7.60,12.38,-6.89,12.07,-6.28,11.41,-5.89,11.84,-4.64,12.92,-4.09,16.10,-5.12,17.88,-5.27,19.50,-3.28,16.54,-2.19,14.56,-2.48,13.75,,
2004-03-23 23:00,-12.10,24.83,-12.06,23.59,-11.32,22.45,-10.80,22.08,-11.60,24.14,-12.39,26.93,-13.62,27.93,-15.15,25.31,-12.82,20.77,-9.06,15.30,-6.67,10.57,,
2004-03-24 00:00,-7.86,9.29,-7.37,9.75,-5.87,9.97,-6.90,10.30,-7.29,9.46,-7.48,10.86,-8.29,11.88,-9.33,10.43,-8.49,6.41,-5.41,2.19,-2.50,-2.17,,
2004-03-24 01:00,-11.10,5.35,-12.85,4.54,-13.90,4.96,-14.34,4.32,-14.10,3.45,-14.69,4.43,-14.82,4.91,-15.22,3.75,-14.37,0.05,-12.26,-3.30,-8.31,-6.96,,
2004-03-24 02:00,-9.44,2.81,-9.10,2.70,-9.73,4.18,-9.73,3.46,-9.12,2.80,-7.84,1.60,-7.32,1.96,-8.02,2.59,-9.84,2.38,-8.16,0.16,-4.81,-1.38,,
2004-03-24 03:00,-10.02,-8.59,-10.74,-9.73,-10.10,-10.49,-11.46,-10.46,-11.37,-9.71,-11.46,-9.73,-12.74,-10.72,-13.12,-10.83,-13.45,-11.14,-13.25,-13.68,-10.88,-13.94,,
2004-03-24 04:00,-10.32,-9.72,-11.09,-9.21,-10.71,-9.10,-10.79,-8.81,-10.46,-9.24,-11.59,-8.21,-11.99,-8.63,-12.18,-8.69,-12.45,-9.91,-14.02,-11.71,-14.55,-12.39,,
2004-03-24 05:00,-7.61,-4.68,-8.17,-4.52,-7.83,-3.91,-7.54,-3.82,-7.83,-3.91,-7.33,-4.91,-6.75,-6.93,-7.26,-8.43,-9.65,-9.53,-10.73,-11.19,-8.11,-11.27,,
2004-03-24 06:00,-8.08,2.78,-8.56,3.37,-9.21,3.08,-9.93,3.81,-10.63,3.72,-11.04,1.52,-12.13,-0.15,-13.51,-2.93,-14.09,-4.56,-11.47,-3.91,-7.93,-1.02,,
2004-03-24 07:00,-12.85,7.45,-13.01,5.84,-12.32,4.17,-13.06,2.40,-13.20,-0.04,-16.15,-2.44,-16.93,-4.43,-15.13,-5.27,-13.22,-4.31,-10.93,-1.05,-7.80,0.37,,
2004-03-24 08:00,-10.01,10.97,-9.48,10.60,-9.57,10.16,-11.09,8.58,-12.55,7.12,-14.29,5.58,-15.28,3.95,-15.45,2.02,-13.94,0.38,-11.40,0.58,-8.59,2.01,,
2004-03-24 09:00,-14.68,18.58,-13.49,18.40,-12.79,17.77,-12.13,17.64,-12.76,17.67,-12.77,16.63,-12.22,16.16,-12.76,14.76,-12.59,12.72,-12.38,10.18,-12.48,8.70,,
2004-03-24 10:00,-12.57,22.82,-12.27,23.22,-12.68,22.48,-12.71,21.85,-13.61,21.38,-14.11,20.92,-14.34,19.92,-14.30,19.41,-13.90,17.66,-13.25,16.49,-12.13,16.91,,
2004-03-24 11:00,-13.17,14.02,-13.04,13.95,-13.83,14.14,-14.17,14.25,-13.32,13.45,-13.00,11.98,-11.71,11.10,-10.76,9.61,-10.94,8.41,-11.03,6.93,-11.45,7.64,,
2004-03-24 12:00,-12.23,11.48,-12.15,11.19,-12.05,9.76,-13.58,9.63,-13.89,8.19,-13.99,7.44,-14.84,6.78,-15.37,5.37,-15.24,4.17,-14.41,3.47,-12.78,3.21,,
2004-03-24 13:00,-11.02,5.79,-10.88,5.31,-10.52,4.79,-10.55,4.88,-11.50,3.47,-12.19,2.23,-11.76,1.10,-11.66,1.86,-9.97,-0.05,-8.34,-1.04,-5.82,-1.46,,
2004-03-24 14:00,-8.75,-2.51,-8.85,-1.08,-9.42,-0.51,-10.49,0.32,-11.65,0.72,-11.32,-0.43,-11.39,-1.28,-10.51,-2.18,-8.90,-3.80,-9.17,-4.29,-8.33,-4.68,,
2004-03-24 15:00,-10.60,-4.39,-11.23,-3.63,-11.40,-3.06,-11.33,-2.93,-12.88,-4.42,-13.99,-5.26,-12.36,-4.79,-11.89,-4.97,-10.77,-6.00,-9.83,-7.08,-7.94,-6.43,,
2004-03-24 16:00,-4.53,-8.16,-6.13,-8.00,-5.85,-7.19,-5.24,-6.39,-6.88,-6.86,-7.08,-6.50,-7.25,-6.65,-5.75,-7.16,-5.20,-7.63,-4.56,-7.34,-4.69,-7.59,,
2004-03-24 17:00,-6.03,-6.93,-6.97,-6.89,-8.72,-6.24,-8.87,-6.81,-9.34,-6.63,-8.99,-6.01,-8.28,-6.32,-7.87,-6.31,-8.07,-6.68,-8.40,-5.53,-9.01,-6.32,,
2004-03-24 18:00,-7.59,-2.18,-8.95,-2.15,-9.26,-1.82,-9.17,-2.11,-9.67,-2.56,-8.98,-2.05,-9.70,-1.74,-9.88,-1.48,-12.15,-2.23,-11.12,-4.02,-9.98,-4.00,,
2004-03-24 19:00,-12.60,0.03,-13.17,-0.13,-13.83,-0.01,-14.27,-0.66,-13.91,-0.45,-13.34,-0.28,-14.38,-1.00,-17.12,0.19,-17.95,2.03,-16.70,1.66,-14.67,-0.35,,
2004-03-24 20:00,-7.97,11.13,-12.46,9.02,-16.27,7.41,-17.82,6.65,-18.20,5.81,-18.77,5.96,-18.18,6.44,-18.89,6.76,-19.67,6.95,-19.30,6.75,-18.37,4.20,,
2004-03-24 21:00,-8.37,12.89,-12.77,11.53,-15.64,11.02,-17.48,10.18,-18.88,8.53,-18.30,7.97,-17.89,7.98,-16.89,6.29,-15.98,6.76,-16.34,7.28,-15.69,6.84,,
2004-03-24 22:00,-5.23,13.17,-8.11,10.89,-9.21,10.36,-9.09,10.30,-9.69,10.23,-9.33,8.98,-9.87,7.58,-10.15,6.04,-10.48,5.01,-9.52,3.10,-8.90,0.57,,
2004-03-24 23:00,-14.80,24.06,-16.11,22.12,-16.21,19.18,-17.10,16.11,-18.21,13.82,-17.74,11.46,-17.58,10.88,-16.50,10.04,-15.34,8.51,-15.98,6.03,-15.84,5.55,,
2004-03-25 00:00,-2.50,17.80,-4.37,16.33,-6.68,13.90,-8.81,9.33,-9.43,6.04,-7.83,1.92,-6.25,0.39,-4.57,-1.10,-3.69,-1.99,-3.50,-2.67,-3.76,-0.66,,
2004-03-25 01:00,1.45,8.01,1.05,6.85,0.13,4.62,0.07,-0.60,0.57,-4.52,0.72,-6.14,1.10,-7.49,2.84,-9.17,5.98,-10.35,6.65,-9.43,7.22,-8.85,,
2004-03-25 02:00,-5.58,4.96,-4.59,2.95,-4.70,-2.49,-4.64,-7.78,-4.47,-10.54,-3.84,-12.02,-2.97,-13.23,-1.20,-14.70,0.08,-15.89,1.05,-14.57,0.93,-13.05,,
2004-03-25 03:00,-5.18,1.74,-5.14,-2.41,-3.73,-5.85,-1.79,-9.36,0.16,-11.08,0.94,-12.00,2.52,-12.07,4.34,-13.32,5.39,-13.75,6.57,-10.60,8.40,-8.62,,
2004-03-25 04:00,-6.58,2.28,-5.22,0.07,-4.32,-3.42,-4.42,-7.09,-3.52,-11.31,-0.27,-14.33,3.39,-14.74,5.45,-16.12,5.37,-16.56,4.60,-16.05,6.08,-13.24,,
2004-03-25 05:00,-16.29,0.22,-15.63,-3.54,-13.68,-6.00,-12.30,-10.08,-10.38,-13.17,-6.46,-14.85,-3.38,-13.97,-1.31,-15.77,1.66,-17.42,4.56,-16.27,4.90,-13.47,,
2004-03-25 06:00,-15.34,-4.91,-16.30,-7.37,-14.83,-11.42,-12.86,-14.29,-9.76,-16.42,-6.71,-17.63,-3.74,-17.09,-0.28,-15.37,0.78,-14.34,3.29,-13.31,7.28,-13.42,,
2004-03-25 07:00,-19.44,-0.78,-18.32,-3.58,-16.37,-6.77,-12.66,-8.83,-8.59,-7.77,-4.50,-6.07,-2.58,-4.07,-0.75,-5.00,2.56,-6.76,3.82,-6.81,3.89,-6.69,,
2004-03-25 08:00,-18.65,12.45,-16.77,10.59,-14.58,7.68,-13.12,5.50,-10.09,4.70,-7.21,5.21,-3.74,7.25,-0.25,8.15,2.55,6.35,4.76,4.80,4.63,3.82,,
2004-03-25 09:00,-14.62,8.92,-12.44,6.01,-9.91,4.44,-7.38,4.34,-3.71,4.24,0.55,4.63,1.82,5.62,2.22,5.32,3.36,5.33,5.22,4.30,5.81,1.87,,
2004-03-25 10:00,-16.72,11.54,-14.02,9.72,-11.37,9.54,-7.92,11.67,-6.04,13.46,-4.78,14.86,-3.28,15.81,-2.84,16.45,-1.96,14.83,1.42,11.02,1.63,7.02,,
2004-03-25 11:00,-10.34,14.31,-8.06,15.06,-5.86,17.56,-4.83,20.15,-4.70,21.85,-4.85,24.93,-4.63,26.34,-1.98,26.17,-0.04,24.12,1.59,19.49,2.05,13.90,,
2004-03-25 12:00,-8.88,7.03,-6.11,9.69,-5.86,11.74,-6.82,14.38,-7.18,16.35,-7.14,19.49,-7.13,21.26,-4.62,21.56,-3.31,18.09,-4.62,13.24,-2.90,7.59,,
2004-03-25 13:00,5.58,0.87,5.85,2.82,5.82,5.83,4.54,7.02,3.57,9.34,2.78,10.26,3.11,12.02,3.99,12.58,5.50,10.21,5.45,4.58,6.37,0.27,,
2004-03-25 14:00,-0.18,0.99,-1.13,-0.43,-0.55,0.47,-2.25,1.33,-3.59,2.72,-4.07,4.04,-5.26,4.94,-5.26,4.21,-4.71,1.56,-3.95,-2.17,-1.29,-4.22,,
2004-03-25 15:00,-2.10,-4.66,-2.59,-5.84,-3.20,-5.91,-3.57,-4.97,-4.52,-4.93,-5.38,-4.45,-6.08,-5.28,-6.16,-5.72,-5.28,-8.79,-3.08,-10.66,-0.67,-8.93,,
2004-03-25 16:00,-3.57,-2.79,-4.90,-6.50,-4.80,-5.74,-6.73,-6.30,-7.87,-5.58,-8.62,-6.94,-8.96,-7.56,-9.69,-7.56,-9.28,-8.28,-8.70,-8.84,-6.18,-6.76,,
2004-03-25 17:00,3.41,-6.10,3.01,-9.43,3.77,-10.99,2.70,-11.61,1.19,-12.87,0.96,-13.87,-0.44,-14.79,-2.30,-15.95,-3.31,-14.58,-1.87,-13.44,-0.42,-11.25,,
2004-03-25 18:00,1.15,-9.45,-0.62,-13.81,-0.62,-15.26,-0.92,-17.12,-1.59,-18.76,-2.83,-20.26,-3.80,-22.31,-4.06,-23.22,-5.22,-20.64,-4.27,-17.04,-3.30,-14.26,,
2004-03-25 19:00,-6.01,5.35,-6.13,1.78,-6.14,-2.90,-6.55,-6.56,-7.06,-8.05,-6.71,-9.62,-7.95,-11.12,-8.03,-12.29,-7.43,-9.30,-7.17,-4.76,-7.85,-3.08,,
2004-03-25 20:00,-6.05,9.50,-6.47,5.53,-6.64,1.74,-5.16,-3.04,-4.38,-6.14,-3.63,-8.74,-5.28,-10.98,-6.00,-11.39,-4.40,-8.23,-2.79,-4.44,-4.60,-2.46,,
2004-03-25 21:00,-7.29,10.92,-8.15,7.03,-7.36,1.74,-6.02,-0.79,-4.50,-3.89,-3.21,-6.22,-3.07,-8.16,-3.04,-10.44,-2.03,-8.90,-1.22,-6.28,-1.73,-6.32,,
2004-03-25 22:00,-6.52,19.14,-7.65,15.08,-7.45,10.76,-6.39,5.97,-4.23,3.16,-2.10,0.44,0.08,-1.74,1.02,-4.28,2.45,-4.19,4.40,-1.55,4.27,-2.21,,
2004-03-25 23:00,-18.82,16.66,-19.71,12.14,-19.51,7.83,-17.76,4.27,-14.37,1.50,-10.60,-1.48,-8.72,-2.60,-5.99,-3.80,-3.54,-2.89,-2.57,-0.84,-4.13,-0.46,,
2004-03-26 00:00,-15.79,17.01,-16.61,11.88,-15.12,8.47,-12.61,7.73,-8.64,5.85,-5.98,4.53,-3.04,3.71,-1.14,2.17,1.81,0.94,3.10,1.51,3.09,1.20,,
2004-03-26 01:00,-13.98,12.12,-13.81,7.17,-12.68,6.15,-10.06,6.06,-7.59,4.69,-5.55,2.67,-2.29,-0.34,1.48,-0.82,4.05,0.02,4.11,-0.18,5.54,-0.81,,
2004-03-26 02:00,-8.19,0.98,-8.21,-3.29,-6.96,-5.11,-3.82,-4.84,-1.93,-5.23,0.98,-5.96,4.73,-7.07,7.77,-6.41,11.40,-4.95,10.37,-3.89,11.02,-4.33,,
2004-03-26 03:00,-10.97,-7.82,-10.57,-11.77,-8.18,-13.58,-6.30,-12.52,-4.02,-12.49,-2.31,-11.90,0.87,-12.13,4.00,-11.44,6.65,-8.70,7.99,-7.18,9.04,-8.33,,
2004-03-26 04:00,-14.00,-9.21,-13.47,-12.91,-11.76,-14.50,-10.53,-14.46,-7.63,-13.32,-5.79,-13.20,-5.28,-13.16,-5.05,-12.89,-2.47,-10.28,-0.22,-5.78,0.46,-4.13,,
2004-03-26 05:00,-5.91,-10.22,-5.26,-15.03,-2.98,-15.73,-0.03,-15.51,0.07,-15.48,0.50,-15.56,1.62,-14.00,3.84,-11.59,4.90,-8.38,5.46,-5.61,7.34,-5.28,,
2004-03-26 06:00,-7.28,-16.34,-6.42,-15.36,-4.56,-14.21,-1.01,-12.46,-0.88,-12.53,-3.34,-11.57,-5.80,-10.61,-5.34,-8.60,-4.05,-5.84,-3.14,-4.64,-1.31,-7.76,,
2004-03-26 07:00,-8.40,-12.81,-7.67,-12.08,-5.27,-9.21,-3.20,-6.64,-2.01,-7.13,-3.57,-6.43,-4.47,-5.44,-5.01,-3.20,-4.39,-4.27,-3.28,-6.35,-0.52,-7.64,,
2004-03-26 08:00,-9.45,-7.70,-8.32,-8.00,-6.97,-5.43,-5.64,-3.18,-3.58,-6.02,-5.41,-7.27,-5.94,-7.22,-6.77,-6.52,-8.13,-6.49,-5.59,-5.55,-2.12,-6.75,,
2004-03-26 09:00,-3.30,2.80,-3.15,1.18,-1.69,4.09,-0.65,6.26,-0.07,5.70,1.06,1.76,0.47,-0.91,0.96,-1.91,0.21,-3.27,-0.99,-3.09,1.73,-3.14,,
2004-03-26 10:00,-14.38,1.91,-14.47,2.93,-15.10,5.14,-16.35,7.70,-15.17,7.93,-14.03,4.30,-12.68,-1.13,-11.84,-2.97,-12.14,-3.37,-12.03,-3.03,-8.67,-2.07,,
2004-03-26 11:00,-2.03,12.53,-0.90,10.77,-0.64,10.95,-2.26,10.07,-4.20,10.66,-4.11,11.10,-2.37,7.54,0.29,2.99,2.47,-0.64,1.70,-0.86,3.76,2.12,,
2004-03-26 12:00,-1.76,5.42,-1.38,5.53,-0.37,5.30,-1.69,5.55,-2.86,6.36,-3.19,5.33,-2.31,2.25,-1.39,-2.06,2.46,-6.78,4.94,-7.43,6.50,-2.72,,
2004-03-26 13:00,-6.53,5.00,-6.01,4.63,-6.01,3.90,-6.21,4.25,-6.86,3.24,-7.03,2.04,-5.33,-0.28,-3.83,-0.79,-0.48,-3.05,2.55,-7.80,2.97,-6.01,,
2004-03-26 14:00,-12.35,0.62,-10.48,-0.82,-8.72,-3.33,-8.60,-4.85,-8.69,-4.88,-8.73,-5.83,-7.71,-7.93,-6.71,-7.44,-4.51,-7.85,-0.80,-8.45,1.16,-6.95,,
2004-03-26 15:00,-8.94,-1.10,-7.66,-4.48,-5.33,-6.83,-3.52,-9.12,-3.67,-9.69,-3.80,-9.62,-4.02,-10.30,-3.83,-9.52,-1.59,-11.17,2.80,-11.58,3.51,-6.80,,
2004-03-26 16:00,6.17,-4.47,8.93,-6.49,11.76,-8.38,12.70,-11.65,12.95,-12.52,13.38,-15.10,12.22,-14.70,12.19,-13.88,14.31,-13.27,17.79,-9.47,17.19,-8.81,,
2004-03-26 17:00,-3.09,-7.75,-1.02,-9.14,1.64,-10.45,2.54,-13.94,2.25,-17.66,2.59,-16.32,1.73,-14.38,1.81,-13.21,5.04,-12.50,8.63,-8.35,11.49,-6.70,,
2004-03-26 18:00,-12.45,-12.82,-10.90,-13.52,-9.10,-13.63,-6.76,-16.71,-5.18,-18.96,-3.83,-19.30,-3.77,-18.45,-6.06,-18.07,-5.88,-16.14,-3.93,-12.78,-2.40,-10.88,,
2004-03-26 19:00,-5.10,-10.51,-5.02,-12.98,-2.57,-12.08,-1.44,-10.61,-0.07,-12.09,1.56,-13.08,4.51,-11.40,4.17,-10.56,5.09,-9.78,5.51,-7.26,3.73,-6.11,,
2004-03-26 20:00,-2.15,-3.74,-1.37,-3.20,-0.26,-2.36,2.56,-3.12,9.06,-7.29,12.48,-7.24,12.09,-5.90,11.07,-5.25,11.09,-5.67,12.92,-5.14,13.79,-5.31,,
2004-03-26 21:00,-7.92,-6.12,-6.58,-5.73,-5.90,-4.08,-5.34,-4.96,-0.15,-6.39,4.87,-7.55,6.38,-7.01,5.79,-6.04,6.38,-4.83,7.60,-4.38,8.40,-5.71,,
2004-03-26 22:00,-0.55,2.65,-1.92,-0.55,-2.68,1.73,-1.90,2.27,0.95,1.42,5.37,-0.96,9.63,-1.30,10.51,0.72,8.34,2.49,7.75,2.01,8.97,0.28,,
2004-03-26 23:00,-3.37,7.04,-3.82,3.17,-4.91,3.69,-7.17,5.43,-6.72,4.21,-0.45,1.22,4.68,0.72,8.84,1.81,8.45,2.11,7.75,2.74,8.75,2.51,,
2004-03-27 00:00,-10.48,6.46,-11.21,2.82,-12.47,0.69,-13.64,1.50,-14.29,1.94,-10.27,-0.45,-5.27,-1.20,-0.34,-1.35,1.65,-1.40,2.03,-2.02,1.98,-2.55,,
2004-03-27 01:00,-0.96,0.45,-2.00,-3.17,-4.45,-4.08,-6.94,-2.30,-6.96,-1.47,-3.42,-5.14,0.86,-6.62,5.76,-5.94,9.06,-5.10,9.91,-3.72,10.07,-3.56,,
2004-03-27 02:00,-7.84,0.15,-7.79,-3.69,-9.76,-3.32,-12.03,-2.30,-11.74,-2.22,-9.86,-4.80,-4.31,-6.75,0.84,-6.21,5.76,-3.76,8.28,-2.41,8.28,-2.41,,
2004-03-27 03:00,-2.17,-0.41,-2.76,-3.81,-3.11,-6.93,-2.78,-8.81,-2.30,-6.48,-1.60,-6.39,0.31,-7.61,3.71,-4.97,6.99,-3.72,8.79,-3.10,10.52,-2.60,,
2004-03-27 04:00,3.77,-14.63,4.20,-19.39,4.27,-25.09,5.76,-24.46,5.65,-22.62,5.76,-21.55,7.87,-19.49,10.89,-17.68,12.70,-16.02,11.96,-14.88,12.55,-13.67,,
2004-03-27 05:00,,-455.12,,-737.08,,834.88,,-567.90,,588.16,,-391.68,,588.16,,-497.41,,707.99,,-441.02,,863.07,,
2004-03-27 06:00,-11.46,-16.28,-9.96,-21.16,-5.85,-21.34,-3.52,-19.32,-2.79,-17.86,-1.47,-17.38,-0.84,-16.68,-2.38,-17.12,-3.38,-16.88,-3.81,-15.76,-3.81,-15.76,,
2004-03-27 07:00,-1.40,-20.89,1.70,-22.29,4.46,-21.40,6.36,-20.02,6.95,-20.27,6.13,-18.84,5.49,-19.54,4.79,-20.37,4.90,-20.75,4.88,-19.93,4.88,-19.93,,
2004-03-27 08:00,-2.12,-16.21,0.57,-16.17,5.50,-13.40,8.67,-11.04,6.81,-11.05,5.74,-12.40,6.46,-13.13,5.71,-12.30,4.43,-11.84,3.70,-11.11,3.59,-11.45,,
2004-03-27 09:00,-11.65,-10.52,-9.13,-13.54,-3.67,-11.87,1.75,-10.84,3.47,-9.93,1.65,-9.41,0.23,-10.96,-0.69,-11.74,-1.05,-11.95,-1.63,-12.12,-0.58,-10.67,,
2004-03-27 10:00,-12.07,-9.80,-5.16,-8.86,0.25,-6.69,-0.22,-6.51,-1.71,-6.00,-2.99,-6.27,-4.23,-7.76,-4.50,-8.99,-3.90,-8.19,-4.07,-7.20,-5.74,-6.84,,
2004-03-27 11:00,-11.12,-8.39,-8.79,-6.37,-4.24,-5.17,-0.66,-3.52,-1.18,-3.87,-2.61,-5.43,-3.66,-7.19,-2.36,-8.48,-1.84,-8.12,-2.25,-8.13,-2.70,-7.64,,
2004-03-27 12:00,-10.86,-5.30,-8.07,-3.77,-5.52,0.39,-0.52,3.28,2.92,3.96,1.85,3.34,1.43,2.28,1.94,1.59,2.68,1.91,3.79,2.02,2.14,0.51,,
2004-03-27 13:00,-14.73,-11.40,-9.67,-6.93,-6.77,-3.60,-3.08,-2.34,-2.88,-2.28,-3.39,-3.05,-2.29,-2.53,-1.03,-2.58,-0.20,-4.01,-1.15,-3.97,-1.89,-2.83,,
2004-03-27 14:00,-12.74,-12.18,-9.83,-4.90,-8.17,2.03,-5.21,3.29,-3.60,4.59,-2.17,4.68,-2.09,4.39,-2.48,5.01,-1.53,4.97,-0.28,3.87,0.55,4.63,,
2004-03-27 15:00,-6.65,-20.00,-1.31,-18.68,0.87,-13.58,-2.26,-8.45,-4.93,-4.22,-6.50,-3.11,-5.49,-2.61,-4.45,-2.63,-4.09,-2.42,-4.33,-1.97,-2.68,-3.37,,
2004-03-27 16:00,8.78,15.83,8.78,15.83,8.78,15.83,8.78,15.83,8.78,15.83,8.78,15.83,8.78,15.83,8.78,15.83,8.78,15.83,8.78,15.83,8.78,15.83,,
2004-03-27 17:00,8.27,-14.69,9.67,-13.04,2.60,-12.36,-0.66,-12.57,-0.00,-14.15,0.08,-12.25,-0.57,-11.09,-0.83,-9.08,-0.54,-7.54,-0.23,-6.83,1.16,-5.49,,
2004-03-27 18:00,10.66,-15.05,7.72,-16.41,3.39,-16.92,3.36,-18.28,3.42,-18.47,3.91,-17.29,2.77,-15.12,1.79,-13.53,1.07,-12.80,0.28,-11.88,2.47,-11.15,,
2004-03-27 19:00,1.80,-17.17,-3.01,-18.55,-4.12,-19.38,-3.15,-19.52,-0.80,-17.91,-0.32,-16.32,-1.71,-15.47,-2.82,-14.85,-3.56,-12.98,-4.63,-12.87,-3.71,-12.09,,
2004-03-27 20:00,3.44,-9.83,0.06,-14.02,-5.02,-15.17,-4.63,-15.79,-4.92,-15.14,-4.48,-13.04,-1.12,-10.62,-3.51,-10.26,-5.60,-8.78,-5.81,-6.97,-4.86,-5.55,,
2004-03-27 21:00,2.01,-7.02,-1.94,-10.65,-6.10,-11.73,-6.13,-10.91,-5.21,-10.13,-4.11,-9.60,-3.84,-8.38,-1.40,-6.75,-0.34,-5.71,-0.30,-4.77,-1.36,-3.61,,
2004-03-27 22:00,-8.76,-7.19,-9.79,-6.86,-10.93,-10.52,-12.74,-11.45,-13.28,-11.40,-14.02,-9.53,-13.18,-7.73,-13.42,-6.55,-13.02,-5.39,-11.40,-4.51,-10.92,-3.65,,
2004-03-27 23:00,-4.96,6.80,-6.20,8.21,-7.22,8.13,-8.95,4.72,-9.73,1.27,-10.61,2.16,-10.85,3.03,-10.77,4.20,-10.20,5.82,-10.36,7.12,-9.22,7.86,,
2004-03-28 00:00,-3.23,-0.72,-4.86,3.18,-7.73,8.09,-11.98,8.43,-13.92,6.83,-14.55,2.49,-14.41,-0.90,-14.48,0.43,-14.93,1.65,-15.66,1.65,-16.03,4.04,,
2004-03-28 01:00,-10.54,1.56,-12.72,5.93,-15.80,5.77,-16.84,2.15,-16.47,-2.43,-14.41,-3.81,-13.05,-4.57,-12.28,-2.89,-13.06,-1.97,-13.41,-0.41,-13.59,0.58,,
2004-03-28 02:00,-16.48,-1.29,-18.54,-3.54,-16.79,-7.10,-12.01,-7.81,-9.80,-6.45,-8.79,-4.91,-9.27,-4.32,-10.26,-3.77,-10.10,-1.44,-10.00,-0.68,-8.95,-1.42,,
2004-03-28 03:00,-11.16,-4.97,-11.06,-2.44,-13.43,-4.68,-12.87,-5.56,-10.63,-5.02,-7.81,-3.59,-6.25,-2.52,-6.59,-0.95,-6.77,-0.69,-6.50,-2.38,-5.95,-2.12,,
2004-03-28 04:00,-11.93,-13.92,-13.63,-13.06,-14.00,-12.85,-10.84,-11.53,-7.40,-10.13,-6.57,-9.37,-7.99,-9.15,-7.55,-9.24,-7.25,-9.57,-6.02,-9.84,-4.71,-9.36,,
2004-03-28 05:00,-3.23,-17.05,-3.93,-12.78,-7.30,-12.28,-9.28,-11.19,-7.22,-8.21,-5.26,-8.16,-6.82,-8.51,-7.63,-8.22,-6.81,-8.92,-5.17,-9.18,-4.99,-7.98,,
2004-03-28 06:00,-6.22,-21.86,-7.87,-16.82,-10.48,-14.97,-12.52,-11.49,-10.41,-8.70,-8.52,-9.10,-8.28,-11.42,-8.16,-12.53,-7.82,-11.91,-7.15,-10.99,-7.60,-9.77,,
2004-03-28 07:00,-14.66,-31.97,-15.06,-28.03,-18.21,-23.94,-20.45,-22.29,-20.74,-20.19,-19.15,-19.94,-18.54,-20.60,-17.36,-20.37,-15.80,-20.02,-14.63,-19.38,-14.89,-17.37,,
2004-03-28 08:00,-9.98,-32.71,-8.77,-31.12,-10.19,-25.08,-11.32,-20.41,-13.37,-19.43,-15.80,-18.57,-17.02,-19.02,-17.19,-18.45,-16.35,-17.37,-15.18,-16.00,-15.85,-15.46,,
2004-03-28 09:00,-6.78,-24.62,-7.34,-17.60,-8.28,-9.96,-6.81,-8.92,-7.62,-8.63,-9.62,-7.44,-10.38,-6.61,-10.96,-7.51,-10.90,-6.97,-10.57,-5.21,-9.72,-6.01,,
2004-03-28 10:00,-4.08,-22.80,-4.18,-19.92,-6.39,-13.27,-7.73,-10.43,-7.18,-8.71,-7.32,-5.32,-8.98,-4.24,-9.96,-4.10,-9.96,-4.10,-9.50,-4.59,-9.64,-4.84,,
2004-03-28 11:00,-13.72,-21.82,-14.33,-21.16,-14.37,-18.47,-16.16,-10.77,-17.45,-5.52,-17.91,-5.75,-16.69,-3.12,-17.65,-0.48,-19.27,0.10,-19.09,-0.89,-19.15,-0.70,,
2004-03-28 12:00,-7.81,-8.69,-6.69,-6.08,-8.07,-3.04,-10.66,3.08,-12.63,3.77,-11.29,3.84,-11.14,6.59,-12.97,8.25,-15.06,9.00,-15.21,9.17,-14.00,8.58,,
2004-03-28 13:00,-1.41,-9.25,-1.48,-4.27,-1.66,-0.37,-3.22,3.24,-5.95,5.89,-7.31,7.37,-9.89,6.94,-11.56,8.76,-12.49,9.84,-11.65,9.46,-10.55,8.52,,
2004-03-28 14:00,-5.28,-13.16,-5.84,-10.10,-7.30,-6.46,-8.21,-3.29,-7.32,1.23,-9.26,4.00,-14.45,4.70,-18.55,4.47,-19.48,4.09,-17.95,-0.15,-25.37,1.78,,
2004-03-28 15:00,-0.82,-25.10,-0.16,-24.49,0.15,-24.51,0.35,-23.72,0.77,-21.21,-0.99,-17.97,-5.58,-13.56,-10.80,-9.86,-12.95,-10.37,-13.29,-10.26,-12.44,-9.60,,
2004-03-28 16:00,1.36,-13.45,0.35,-13.21,-1.00,-10.69,-3.28,-7.08,-3.73,-4.40,-6.92,-1.98,-11.69,0.50,-16.06,0.50,-16.50,-0.15,-15.74,1.94,-15.29,-0.74,,
2004-03-28 17:00,-3.29,-14.67,-2.26,-13.55,-2.25,-11.05,-5.21,-8.67,-7.03,-3.78,-11.18,-1.64,-15.85,-1.32,-18.31,-3.27,-18.01,-4.33,-16.08,-5.96,-13.73,-5.81,,
2004-03-28 18:00,4.18,-13.16,4.53,-12.54,4.69,-10.93,1.96,-8.28,-2.18,-6.55,-7.88,-7.35,-9.97,-7.33,-9.46,-8.01,-7.95,-8.93,-4.53,-8.16,-1.37,-6.84,,
2004-03-28 19:00,6.55,-18.51,5.30,-17.41,3.97,-16.03,1.88,-13.09,-1.19,-10.74,-6.68,-10.44,-11.94,-12.05,-12.29,-11.94,-11.19,-11.42,-8.30,-11.32,-5.64,-11.18,,
2004-03-28 20:00,3.26,-11.03,2.00,-10.97,2.35,-8.58,-0.37,-7.80,-1.51,-7.09,-4.32,-7.79,-7.82,-9.00,-12.29,-10.49,-14.65,-9.50,-14.18,-8.22,-12.85,-6.70,,